K9SCH Weather Reports


Display with metric or nautical units.
time (UTC)temp
F
wind
direction
speed
MPH
gust
MPH
rain 1hr
in
rain 24hr
in
rain mn
in
humidity
%
barometer
mb
20260904220039 98 248 5.0 12.0 0.00 0.00 0.00 25 1011.7
20260904215017 98 0.0 0.0 0.00 0.00 0.00 33 1012.0
20260904214016 97 68 4.0 7.0 0.00 0.00 0.00 33 1011.9
20260904213017 96 135 3.0 7.0 0.00 0.00 0.00 34 1012.1
20260904212016 96 113 1.0 5.0 0.00 0.00 0.00 35 1012.2
20260904211019 96 338 1.0 7.0 0.00 0.00 0.00 35 1012.3
20260904210036 97 270 2.0 4.0 0.00 0.00 0.00 35 1012.6
20260904205016 98 203 3.0 12.0 0.00 0.00 0.00 34 1012.8
20260904204017 98 158 5.0 10.0 0.00 0.00 0.00 36 1012.9
20260904203018 96 0.0 1.0 0.00 0.00 0.00 37 1012.9
20260904202016 95 248 3.0 7.0 0.00 0.00 0.00 38 1013.1
20260904201016 95 135 4.0 7.0 0.00 0.00 0.00 38 1013.2
20260904200016 94 135 2.0 6.0 0.00 0.00 0.00 40 1013.2
20260904195038 96 113 3.0 7.0 0.00 0.00 0.00 39 1013.4
20260904194036 96 158 3.0 10.0 0.00 0.00 0.00 40 1013.6
20260904193015 95 225 2.0 6.0 0.00 0.00 0.00 41 1013.7
20260904192016 95 225 4.0 7.0 0.00 0.00 0.00 40 1013.9
20260904191017 94 0.0 5.0 0.00 0.00 0.00 41 1013.9
20260904190017 95 135 4.0 9.0 0.00 0.00 0.00 42 1014.1
20260904185016 94 203 4.0 9.0 0.00 0.00 0.00 42 1014.2
20260904184016 93 158 6.0 11.0 0.00 0.00 0.00 43 1014.4
20260904183015 93 158 4.0 11.0 0.00 0.00 0.00 44 1014.5
20260904182019 93 135 5.0 11.0 0.00 0.00 0.00 43 1014.7
20260904181017 92 135 4.0 10.0 0.00 0.00 0.00 46 1014.7
20260904180019 92 203 5.0 9.0 0.00 0.00 0.00 46 1014.8
20260904175017 92 135 6.0 10.0 0.00 0.00 0.00 46 1014.9
20260904174038 92 158 5.0 11.0 0.00 0.00 0.00 47 1015.1
20260904173017 91 158 5.0 9.0 0.00 0.00 0.00 49 1015.1
20260904172036 91 158 4.0 10.0 0.00 0.00 0.00 50 1015.0
20260904171015 89 135 5.0 10.0 0.00 0.00 0.00 50 1015.1
20260904170016 89 135 5.0 10.0 0.00 0.00 0.00 53 1015.1
20260904165036 88 135 6.0 11.0 0.00 0.00 0.00 54 1015.1
20260904164015 88 135 6.0 11.0 0.00 0.00 0.00 55 1015.0
20260904163015 87 135 6.0 11.0 0.00 0.00 0.00 55 1014.9
20260904162015 87 135 6.0 11.0 0.00 0.00 0.00 55 1015.0
20260904161015 87 135 6.0 11.0 0.00 0.00 0.00 56 1014.9
20260904160040 87 158 6.0 12.0 0.00 0.00 0.00 56 1014.9
20260904155016 87 158 5.0 11.0 0.00 0.00 0.00 56 1014.8
20260904154015 86 135 5.0 9.0 0.00 0.00 0.00 58 1014.7
20260904153015 86 135 7.0 11.0 0.00 0.00 0.00 59 1014.5
20260904152019 86 135 6.0 10.0 0.00 0.00 0.00 59 1014.6
20260904151015 85 135 6.0 11.0 0.00 0.00 0.00 59 1014.4
20260904150016 85 135 5.0 11.0 0.00 0.00 0.00 60 1014.4
20260904145036 84 135 4.0 8.0 0.00 0.00 0.00 62 1014.5
20260904144015 84 135 4.0 7.0 0.00 0.00 0.00 63 1014.5
20260904143020 83 135 4.0 7.0 0.00 0.00 0.00 63 1014.4
20260904142017 83 135 4.0 8.0 0.00 0.00 0.00 64 1014.2
20260904141017 82 113 3.0 6.0 0.00 0.00 0.00 66 1014.1
20260904140017 81 113 3.0 5.0 0.00 0.00 0.00 68 1013.9
20260904135017 80 113 2.0 4.0 0.00 0.00 0.00 69 1013.6
20260904134017 79 113 3.0 5.0 0.00 0.00 0.00 70 1013.5
20260904133017 79 113 3.0 4.0 0.00 0.00 0.00 70 1013.3
20260904132015 79 135 3.0 5.0 0.00 0.00 0.00 71 1013.5
20260904131016 79 135 2.0 4.0 0.00 0.00 0.00 71 1013.3
20260904130016 79 113 2.0 4.0 0.00 0.00 0.00 71 1013.2
20260904125017 78 135 1.0 3.0 0.00 0.00 0.00 72 1013.0
20260904124017 78 0.0 2.0 0.00 0.00 0.00 73 1013.0
20260904123016 79 113 2.0 4.0 0.00 0.00 0.00 72 1013.0
20260904122015 79 0.0 3.0 0.00 0.00 0.00 72 1013.0
20260904121017 79 113 2.0 5.0 0.00 0.00 0.00 72 1013.0
20260904120016 79 113 3.0 5.0 0.00 0.00 0.00 71 1012.9
20260904115017 80 135 3.0 6.0 0.00 0.00 0.00 71 1013.0
20260904114016 80 135 4.0 7.0 0.00 0.00 0.00 70 1012.9
20260904113035 80 113 4.0 7.0 0.00 0.00 0.00 70 1013.1
20260904112017 80 90 4.0 7.0 0.00 0.00 0.00 70 1013.1
20260904111015 80 90 3.0 5.0 0.00 0.00 0.00 70 1013.1
20260904110017 80 113 3.0 4.0 0.00 0.00 0.00 70 1013.0
20260904105015 80 135 3.0 6.0 0.00 0.00 0.00 69 1012.9
20260904104017 80 135 3.0 5.0 0.00 0.00 0.00 69 1012.9
20260904103017 80 135 3.0 5.0 0.00 0.00 0.00 69 1012.8
20260904102035 81 135 3.0 7.0 0.00 0.00 0.00 68 1012.6
20260904101021 80 135 3.0 5.0 0.00 0.00 0.00 68 1012.5
20260904100017 80 113 3.0 6.0 0.00 0.00 0.00 70 1012.4
20260904095017 80 113 3.0 6.0 0.00 0.00 0.00 71 1012.4
20260904094020 79 90 2.0 5.0 0.00 0.00 0.00 72 1012.3
20260904093039 79 113 2.0 3.0 0.00 0.00 0.00 73 1012.3
20260904092017 79 90 1.0 2.0 0.00 0.00 0.00 73 1012.2
20260904091019 79 90 2.0 3.0 0.00 0.00 0.00 73 1012.2
20260904090020 80 90 2.0 3.0 0.00 0.00 0.00 72 1012.1
20260904085015 80 113 3.0 4.0 0.00 0.00 0.00 71 1012.1
20260904084037 80 90 2.0 3.0 0.00 0.00 0.00 69 1012.2
20260904083017 81 135 2.0 7.0 0.00 0.00 0.00 68 1012.2
20260904082018 81 135 3.0 6.0 0.00 0.00 0.00 68 1012.2
20260904081019 81 158 2.0 5.0 0.00 0.00 0.00 68 1012.2
20260904080018 81 135 2.0 5.0 0.00 0.00 0.00 68 1012.3
20260904075037 81 135 3.0 6.0 0.00 0.00 0.00 68 1012.3
20260904074019 81 135 4.0 7.0 0.00 0.00 0.00 68 1012.3
20260904073020 81 135 3.0 6.0 0.00 0.00 0.00 67 1012.3
20260904072041 81 135 5.0 8.0 0.00 0.00 0.00 67 1012.3
20260904071017 81 135 5.0 12.0 0.00 0.00 0.00 67 1012.3
20260904070019 81 135 6.0 10.0 0.00 0.00 0.00 66 1012.3
20260904065016 81 135 7.0 12.0 0.00 0.00 0.00 66 1012.2
20260904064037 81 135 7.0 11.0 0.00 0.00 0.00 66 1012.1
20260904063016 81 135 5.0 10.0 0.00 0.00 0.00 66 1012.1
20260904062020 82 135 5.0 9.0 0.00 0.00 0.00 65 1012.0
20260904061037 82 135 5.0 11.0 0.00 0.00 0.00 65 1011.9
20260904060038 82 135 6.0 11.0 0.00 0.00 0.00 64 1011.8
20260904055018 83 135 6.0 12.0 0.00 0.00 0.00 63 1011.8
20260904054018 83 135 5.0 10.0 0.00 0.00 0.00 63 1011.8
20260904053018 83 135 6.0 11.0 0.00 0.00 0.00 63 1011.7
20260904052016 83 135 6.0 12.0 0.00 0.00 0.00 63 1011.7
20260904051018 83 135 6.0 11.0 0.00 0.00 0.00 63 1011.7
20260904050017 83 135 5.0 12.0 0.00 0.00 0.00 61 1011.5
20260904045020 84 135 6.0 12.0 0.00 0.00 0.00 60 1011.6
20260904044036 84 135 7.0 11.0 0.00 0.00 0.00 59 1011.5
20260904043038 84 135 7.0 15.0 0.00 0.00 0.00 58 1011.4
20260904042018 85 135 7.0 13.0 0.00 0.00 0.00 56 1011.4
20260904041017 85 135 6.0 11.0 0.00 0.00 0.00 55 1011.3
20260904040019 85 135 6.0 10.0 0.00 0.00 0.00 54 1011.0
20260904035016 85 135 6.0 11.0 0.00 0.00 0.00 53 1011.0
20260904034016 84 135 6.0 12.0 0.00 0.00 0.00 53 1010.6
20260904033016 84 135 6.0 10.0 0.00 0.00 0.00 52 1010.5
20260904032016 85 135 7.0 11.0 0.00 0.00 0.00 52 1010.3
20260904031016 84 135 8.0 14.0 0.00 0.00 0.00 53 1010.2
20260904030018 84 135 7.0 12.0 0.00 0.00 0.00 57 1010.1
20260904025017 86 135 9.0 14.0 0.00 0.00 0.00 53 1010.0
20260904024017 86 135 6.0 12.0 0.00 0.00 0.00 50 1009.9
20260904023017 86 0.0 1.0 0.00 0.00 0.00 52 1009.7
20260904022016 86 0.0 1.0 0.00 0.00 0.00 52 1009.7
20260904021036 86 0.0 0.0 0.00 0.00 0.00 51 1009.6
20260904020039 85 270 3.0 5.0 0.00 0.00 0.00 52 1009.6
20260904015036 85 270 5.0 10.0 0.00 0.00 0.00 53 1009.8
20260904014016 85 270 9.0 15.0 0.00 0.00 0.00 53 1009.9
20260904013018 86 270 10.0 19.0 0.00 0.00 0.00 53 1010.2
20260904012037 92 248 4.0 24.0 0.00 0.00 0.00 41 1010.1
20260904011019 93 0.0 0.0 0.00 0.00 0.00 38 1009.6
20260904010016 93 0.0 3.0 0.00 0.00 0.00 37 1009.6
20260904005038 93 135 1.0 2.0 0.00 0.00 0.00 37 1009.7
20260904004018 94 0.0 1.0 0.00 0.00 0.00 36 1009.8
20260904003040 94 135 2.0 7.0 0.00 0.00 0.00 35 1009.7
20260904002016 95 0.0 3.0 0.00 0.00 0.00 35 1009.8
20260904001036 96 0.0 4.0 0.00 0.00 0.00 34 1009.8
20260904000036 96 113 1.0 4.0 0.00 0.00 0.00 34 1010.0
20260903235017 97 135 3.0 6.0 0.00 0.00 0.00 34 1010.1
20260903234016 97 135 3.0 8.0 0.00 0.00 0.00 33 1010.2
20260903233016 97 0.0 1.0 0.00 0.00 0.00 34 1010.1
20260903232018 97 158 3.0 10.0 0.00 0.00 0.00 33 1010.2
20260903231038 96 90 1.0 4.0 0.00 0.00 0.00 34 1010.2
20260903230017 97 0.0 0.0 0.00 0.00 0.00 32 1010.4
20260903225045 96 248 3.0 9.0 0.00 0.00 0.00 33 1010.4
20260903224016 97 203 4.0 8.0 0.00 0.00 0.00 33 1010.8
20260903223017 96 0.0 3.0 0.00 0.00 0.00 34 1010.7
20260903222017 96 203 4.0 12.0 0.00 0.00 0.00 34 1010.8
20260903221016 96 248 1.0 5.0 0.00 0.00 0.00 35 1010.9